Lexington, NE

11:34 AM CDT on August 23, 2017 (GMT -0500)
Kelly

Weather History for KLXN - September, 2013

Change the Weather History Date:

Monday, September 30, 2013

  Actual Average Record
Temperature  
Mean Temperature 66 °F -  
Max Temperature 83 °F 67 °F 87 °F (2000)
Min Temperature 48 °F 41 °F 32 °F (2011)
Growing Degree Days 16 (Base 50)    
Moisture  
Dew Point 49 °F    
Average Humidity 59    
Maximum Humidity 90    
Minimum Humidity 27    
Precipitation  
Precipitation 0.00 in - - ()
Sea Level Pressure  
Sea Level Pressure 29.78 in    
Wind  
Wind Speed 8 mph (South)    
Max Wind Speed 17 mph    
Max Gust Speed 23 mph    
Visibility 10 miles    
Events      
Averages and records for this station are not official NWS values.
T = Trace of Precipitation, MM = Missing Value Source: NWS Daily Summary

Daily Weather History Graph

Daily Weather History Graph

Search for Another Location

Airport or City:

Trip Planner

Search our weather history database for the weather conditions in past years. The results will help you decide how hot, cold, wet, or windy it might be!

Date:

Astronomy

Sep. 30, 2013 Rise Set
Actual Time 7:34 AM CDT 7:22 PM CDT
Civil Twilight 7:07 AM CDT 7:49 PM CDT
Nautical Twilight 6:35 AM CDT 8:21 PM CDT
Astronomical Twilight 6:03 AM CDT 8:53 PM CDT
Moon 3:12 AM CDT (9/30) 4:55 PM CDT (9/30)
Length of Visible Light 12h 42m
Length of Day
11h 47m
Waning Crescent, 19% of the Moon is Illuminated
Sep 30
Waning Crescent
Oct 4
New
Oct 11
First Quarter
Oct 18
Full
Oct 26
Last Quarter

Hourly Weather History & Observations

Time (CDT) Temp. Dew Point Humidity Pressure Visibility Wind Dir Wind Speed Gust Speed Precip Events Conditions
12:15 AM 59.4 °F 44.1 °F 57% 29.85 in 10.0 mi South 10.4 mph - N/A   Clear
12:35 AM 59.0 °F 44.2 °F 58% 29.85 in 10.0 mi South 10.4 mph - N/A   Clear
12:55 AM 58.6 °F 44.6 °F 60% 29.85 in 10.0 mi South 6.9 mph - N/A   Clear
1:15 AM 58.1 °F 44.2 °F 60% 29.84 in 10.0 mi South 9.2 mph - N/A   Clear
1:35 AM 57.2 °F 44.4 °F 62% 29.85 in 10.0 mi South 8.1 mph - N/A   Clear
1:55 AM 57.0 °F 44.6 °F 63% 29.84 in 10.0 mi SSE 6.9 mph - N/A   Clear
2:15 AM 56.3 °F 44.6 °F 65% 29.85 in 10.0 mi SSE 4.6 mph - N/A   Clear
2:35 AM 55.2 °F 44.6 °F 67% 29.85 in 10.0 mi ESE 4.6 mph - N/A   Clear
2:55 AM 55.8 °F 44.8 °F 67% 29.84 in 10.0 mi SE 6.9 mph - N/A   Clear
3:15 AM 56.3 °F 45.0 °F 66% 29.84 in 10.0 mi SE 5.8 mph - N/A   Clear
3:35 AM 55.2 °F 44.8 °F 68% 29.84 in 10.0 mi SSE 4.6 mph - N/A   Clear
3:55 AM 54.3 °F 45.0 °F 71% 29.83 in 10.0 mi South 6.9 mph - N/A   Clear
4:15 AM 55.0 °F 45.0 °F 69% 29.83 in 10.0 mi SSW 6.9 mph - N/A   Clear
4:35 AM 56.7 °F 45.5 °F 66% 29.83 in 10.0 mi SW 10.4 mph - N/A   Clear
4:55 AM 54.9 °F 45.5 °F 71% 29.82 in 10.0 mi SSW 4.6 mph - N/A   Clear
5:15 AM 52.9 °F 45.5 °F 76% 29.81 in 10.0 mi SE 4.6 mph - N/A   Clear
5:35 AM 52.3 °F 45.5 °F 78% 29.81 in 10.0 mi SSE 5.8 mph - N/A   Clear
5:55 AM 51.3 °F 45.5 °F 81% 29.82 in 10.0 mi SSE 3.5 mph - N/A   Clear
6:15 AM 50.9 °F 45.1 °F 81% 29.82 in 10.0 mi Calm Calm - N/A   Clear
6:35 AM 49.1 °F 45.3 °F 87% 29.81 in 10.0 mi SW 3.5 mph - N/A   Clear
6:55 AM 48.4 °F 44.8 °F 87% 29.81 in 10.0 mi Calm Calm - N/A   Clear
7:15 AM 48.6 °F 44.4 °F 86% 29.81 in 10.0 mi SSE 3.5 mph - N/A   Clear
7:35 AM 48.6 °F 44.8 °F 87% 29.81 in 10.0 mi SSW 4.6 mph - N/A   Clear
7:55 AM 49.8 °F 45.3 °F 84% 29.81 in 10.0 mi SSW 3.5 mph - N/A   Clear
8:15 AM 48.7 °F 44.8 °F 86% 29.82 in 10.0 mi Calm Calm - N/A   Clear
8:35 AM 50.4 °F 47.7 °F 90% 29.81 in 10.0 mi Calm Calm - N/A   Clear
8:55 AM 52.7 °F 49.1 °F 88% 29.81 in 10.0 mi Calm Calm - N/A   Clear
9:15 AM 56.3 °F 49.8 °F 79% 29.80 in 10.0 mi South 5.8 mph - N/A   Clear
9:35 AM 59.0 °F 49.6 °F 71% 29.80 in 10.0 mi South 4.6 mph - N/A   Clear
9:55 AM 61.0 °F 49.8 °F 67% 29.80 in 10.0 mi SSW 3.5 mph - N/A   Clear
10:15 AM 63.5 °F 49.5 °F 60% 29.80 in 10.0 mi South 4.6 mph - N/A   Clear
10:35 AM 65.7 °F 50.7 °F 58% 29.81 in 10.0 mi SSW 5.8 mph - N/A   Clear
10:55 AM 67.5 °F 50.4 °F 54% 29.80 in 10.0 mi SSW 4.6 mph - N/A   Clear
11:15 AM 69.6 °F 50.9 °F 51% 29.81 in 10.0 mi SW 8.1 mph - N/A   Clear
11:35 AM 71.2 °F 52.0 °F 51% 29.80 in 10.0 mi South 5.8 mph - N/A   Clear
11:55 AM 73.0 °F 51.6 °F 47% 29.80 in 10.0 mi South 5.8 mph - N/A   Clear
12:15 PM 74.5 °F 52.7 °F 46% 29.79 in 10.0 mi South 5.8 mph - N/A   Clear
12:35 PM 76.1 °F 52.7 °F 44% 29.79 in 10.0 mi SSE 9.2 mph - N/A   Clear
12:55 PM 77.4 °F 52.7 °F 42% 29.78 in 10.0 mi SSE 9.2 mph - N/A   Clear
1:15 PM 78.6 °F 51.3 °F 38% 29.78 in 10.0 mi South 9.2 mph - N/A   Clear
1:35 PM 79.9 °F 51.4 °F 37% 29.77 in 10.0 mi South 10.4 mph - N/A   Clear
1:55 PM 80.8 °F 49.8 °F 34% 29.77 in 10.0 mi South 11.5 mph - N/A   Clear
2:15 PM 81.0 °F 50.0 °F 34% 29.76 in 10.0 mi South 11.5 mph - N/A   Clear
2:35 PM 81.9 °F 50.7 °F 34% 29.75 in 10.0 mi SSW 10.4 mph - N/A   Clear
2:55 PM 83.1 °F 48.7 °F 30% 29.74 in 10.0 mi South 13.8 mph - N/A   Clear
3:15 PM 82.9 °F 46.9 °F 28% 29.74 in 10.0 mi South 13.8 mph - N/A   Clear
3:35 PM 83.1 °F 48.0 °F 29% 29.73 in 10.0 mi South 16.1 mph 19.6 mph N/A   Clear
3:55 PM 83.3 °F 49.6 °F 31% 29.73 in 10.0 mi South 13.8 mph 18.4 mph N/A   Clear
4:15 PM 83.7 °F 47.1 °F 28% 29.73 in 10.0 mi South 12.7 mph - N/A   Clear
4:35 PM 83.3 °F 46.0 °F 27% 29.73 in 10.0 mi South 15.0 mph - N/A   Clear
4:55 PM 82.0 °F 46.4 °F 29% 29.72 in 10.0 mi South 17.3 mph 23.0 mph N/A   Clear
5:15 PM 81.1 °F 45.9 °F 29% 29.71 in 10.0 mi South 13.8 mph 21.9 mph N/A   Clear
5:35 PM 80.6 °F 45.3 °F 29% 29.71 in 10.0 mi South 16.1 mph - N/A   Clear
5:55 PM 79.3 °F 48.0 °F 33% 29.71 in 10.0 mi South 12.7 mph - N/A   Clear
6:15 PM 76.6 °F 50.2 °F 39% 29.71 in 10.0 mi South 10.4 mph - N/A   Clear
6:35 PM 75.2 °F 51.4 °F 43% 29.71 in 10.0 mi South 10.4 mph - N/A   Clear
6:55 PM 73.8 °F 52.5 °F 47% 29.71 in 10.0 mi South 9.2 mph - N/A   Clear
7:15 PM 72.5 °F 51.8 °F 48% 29.71 in 10.0 mi South 11.5 mph - N/A   Clear
7:35 PM 70.5 °F 52.3 °F 52% 29.72 in 10.0 mi South 10.4 mph - N/A   Clear
7:55 PM 69.3 °F 53.1 °F 56% 29.73 in 10.0 mi SSE 9.2 mph - N/A   Clear
8:15 PM 67.6 °F 53.6 °F 61% 29.73 in 10.0 mi SSE 6.9 mph - N/A   Clear
8:35 PM 65.5 °F 53.8 °F 66% 29.74 in 10.0 mi SSE 8.1 mph - N/A   Clear
8:55 PM 65.8 °F 54.0 °F 65% 29.74 in 10.0 mi SSE 9.2 mph - N/A   Clear
9:15 PM 64.8 °F 54.0 °F 68% 29.74 in 10.0 mi SSE 10.4 mph - N/A   Clear
9:35 PM 65.5 °F 53.8 °F 66% 29.76 in 10.0 mi SSE 5.8 mph - N/A   Clear
9:55 PM 63.5 °F 53.1 °F 69% 29.76 in 10.0 mi SE 4.6 mph - N/A   Clear
10:15 PM 64.4 °F 53.1 °F 67% 29.76 in 10.0 mi SE 3.5 mph - N/A   Clear
10:35 PM 60.6 °F 52.2 °F 74% 29.77 in 10.0 mi SE 3.5 mph - N/A   Clear
10:55 PM 56.3 °F 51.8 °F 85% 29.77 in 10.0 mi SSE 8.1 mph - N/A   Clear
11:15 PM 59.0 °F 52.7 °F 80% 29.78 in 10.0 mi South 4.6 mph - N/A   Clear
11:35 PM 59.0 °F 52.5 °F 79% 29.78 in 10.0 mi SSE 5.8 mph - N/A   Clear
11:55 PM 59.7 °F 52.7 °F 78% 29.78 in 10.0 mi SSE 5.8 mph - N/A   Clear